This is the latest recevied weather packets stored in our database for station/object DB2AG-13. If no packets are shown the sender has not sent any weather packets the latest 10 day(s).
| Time | Temp. | Humidity | Pressure | Rain* | Wind** | Luminosity | Snow |
|---|---|---|---|---|---|---|---|
| 1787661003 | 25.56° C | 30% | 1017.9 hPa | - | - | - | - |
| 1787660472 | 25.56° C | 31% | 1018.1 hPa | - | - | - | - |
| 1787659372 | 23.89° C | 34% | 1018.1 hPa | - | - | - | - |
| 1787658823 | 23.33° C | 32% | 1018.1 hPa | - | - | - | - |
| 1787658275 | 23.89° C | 33% | 1018 hPa | - | - | - | - |
| 1787657733 | 24.44° C | 32% | 1018.1 hPa | - | - | - | - |
| 1787657188 | 24.44° C | 32% | 1018.3 hPa | - | - | - | - |
| 1787656646 | 25° C | 31% | 1018.4 hPa | - | - | - | - |
| 1787656106 | 25° C | 31% | 1018.4 hPa | - | - | - | - |
| 1787655565 | 25° C | 33% | 1018.4 hPa | - | - | - | - |
| 1787654490 | 25° C | 32% | 1018.5 hPa | - | - | - | - |
| 1787653404 | 25.56° C | 34% | 1018.7 hPa | - | - | - | - |
| 1787652863 | 25.56° C | 33% | 1018.8 hPa | - | - | - | - |
| 1787652319 | 25.56° C | 37% | 1018.8 hPa | - | - | - | - |
| 1787651774 | 24.44° C | 39% | 1018.9 hPa | - | - | - | - |
| 1787651232 | 23.89° C | 41% | 1018.8 hPa | - | - | - | - |
| 1787650688 | 23.89° C | 42% | 1019.1 hPa | - | - | - | - |
| 1787650143 | 23.33° C | 44% | 1019 hPa | - | - | - | - |
| 1787649599 | 22.22° C | 44% | 1019 hPa | - | - | - | - |
| 1787649058 | 22.22° C | 44% | 1019.1 hPa | - | - | - | - |
| 1787648523 | 22.78° C | 42% | 1019 hPa | - | - | - | - |
| 1787647452 | 21.67° C | 45% | 1019 hPa | - | - | - | - |
| 1787646916 | 21.67° C | 44% | 1019 hPa | - | - | - | - |
| 1787646374 | 22.22° C | 43% | 1019 hPa | - | - | - | - |
| 1787645832 | 22.22° C | 43% | 1018.9 hPa | - | - | - | - |
* Rain since midnight (hover to see other rain measurements)
** Current wind speed in m/s (hover to see current wind gust speed)